Weather History for KIND - December, 2012

Change the Weather History Date:

Sunday, December 9, 2012

  Actual Average Record
Temperature  
Mean Temperature 48 °F 33 °F  
Max Temperature 54 °F 41 °F 65 °F (1952)
Min Temperature 42 °F 26 °F -15 °F (1876)
Degree Days  
Heating Degree Days 17 32  
Month to date heating degree days 142 271  
Since 1 July heating degree days 1305 1313  
Cooling Degree Days 0 0  
Month to date cooling degree days 0 0  
Year to date cooling degree days 1534 1066  
Moisture  
Dew Point 48 °F    
Average Humidity 95    
Maximum Humidity 100    
Minimum Humidity 89    
Precipitation  
Precipitation 0.52 in 0.11 in 1.39 in (2008)
Month to date precipitation 1.23 0.94  
Year to date precipitation 36.65 40.21  
Snow  
Snow 0.00 in 0.20 in 5.40 in (1901)
Month to date snowfall 0.0 1.3  
Since 1 July snowfall 0.2 2.4  
Snow Depth 0.00 in    
Sea Level Pressure  
Sea Level Pressure 29.81 in    
Wind  
Wind Speed 9 mph (SE)    
Max Wind Speed 25 mph    
Max Gust Speed 33 mph    
Visibility 4 miles    
Events Fog , Rain    
T = Trace of Precipitation, MM = Missing Value Source: NWS Daily Summary

Daily Weather History Graph

Daily Weather History Graph

Search for Another Location

Airport or City:

Trip Planner

Search our weather history database for the weather conditions in past years. The results will help you decide how hot, cold, wet, or windy it might be!

Date:

Astronomy

Dec. 09, 2012 Rise Set
Actual Time 7:54 AM EST 5:20 PM EST
Civil Twilight 7:24 AM EST 5:50 PM EST
Nautical Twilight 6:50 AM EST 6:24 PM EST
Astronomical Twilight 6:18 AM EST 6:57 PM EST
Moon 3:27 AM EST (12/9) 2:26 PM EST (12/9)
Length of Visible Light 10h 26m
Length of Day
9h 25m
Waning Crescent, 19% of the Moon is Illuminated
Dec 9
Waning Crescent
Dec 13
New
Dec 20
First Quarter
Dec 28
Full
Jan 4
Last Quarter

Hourly Weather History & Observations

Time (EST) Temp. Windchill Dew Point Humidity Pressure Visibility Wind Dir Wind Speed Gust Speed Precip Events Conditions
12:54 AM 42.1 °F 36.1 °F 39.9 °F 92% 30.03 in 6.0 mi ENE 10.4 mph - N/A   Overcast
1:54 AM 42.1 °F 35.7 °F 39.0 °F 89% 30.03 in 6.0 mi ENE 11.5 mph - N/A   Overcast
2:54 AM 42.1 °F 36.1 °F 39.9 °F 92% 30.02 in 6.0 mi ENE 10.4 mph - N/A   Overcast
3:54 AM 42.1 °F 36.1 °F 41.0 °F 96% 30.01 in 5.0 mi East 10.4 mph - 0.00 in Rain Light Rain
4:54 AM 43.0 °F 36.8 °F 41.0 °F 93% 29.99 in 3.0 mi East 11.5 mph - 0.00 in Rain Light Rain
5:54 AM 43.0 °F 36.4 °F 41.0 °F 93% 29.96 in 4.0 mi East 12.7 mph - 0.00 in   Overcast
6:54 AM 43.0 °F 36.8 °F 41.0 °F 93% 29.94 in 5.0 mi ENE 11.5 mph - N/A   Overcast
7:54 AM 44.1 °F 37.7 °F 42.1 °F 93% 29.93 in 5.0 mi East 12.7 mph - N/A   Overcast
8:40 AM 44.6 °F 38.4 °F 42.8 °F 93% 29.91 in 2.5 mi East 12.7 mph - N/A   Overcast
8:54 AM 44.1 °F 38.1 °F 42.1 °F 93% 29.92 in 2.0 mi East 11.5 mph - 0.00 in Rain Light Rain
9:40 AM 44.6 °F 39.7 °F 42.8 °F 93% 29.89 in 1.8 mi East 9.2 mph - 0.01 in Rain Light Rain
9:54 AM 44.1 °F 39.5 °F 43.0 °F 96% 29.91 in 1.5 mi NE 8.1 mph - 0.02 in Rain Light Rain
10:37 AM 44.6 °F 40.7 °F 42.8 °F 93% 29.90 in 1.0 mi East 6.9 mph - 0.18 in Rain Heavy Rain
10:54 AM 44.1 °F 37.7 °F 44.1 °F 100% 29.89 in 1.5 mi East 12.7 mph - 0.23 in Rain Rain
11:21 AM 44.6 °F 39.7 °F 44.6 °F 100% 29.88 in 1.5 mi East 9.2 mph - 0.03 in   Overcast
11:28 AM 44.6 °F 40.2 °F 44.6 °F 100% 29.88 in 0.5 mi East 8.1 mph - 0.03 in   Overcast
11:54 AM 46.0 °F 42.5 °F 46.0 °F 100% 29.87 in 0.5 mi East 6.9 mph - 0.03 in   Overcast
12:54 PM 46.9 °F - 46.9 °F 100% 29.83 in 0.5 mi SE 8.1 mph - 0.03 in Fog , Rain Light Rain
1:54 PM 48.9 °F - 48.9 °F 100% 29.78 in 0.5 mi SSE 8.1 mph - 0.01 in Fog Fog
2:54 PM 51.1 °F - 51.1 °F 100% 29.77 in 0.5 mi South 5.8 mph - N/A   Overcast
3:54 PM 53.1 °F - 52.0 °F 96% 29.77 in 0.5 mi South 4.6 mph - N/A   Overcast
4:21 PM 53.6 °F - 53.6 °F 100% 29.77 in 0.5 mi SSW 4.6 mph - N/A   Overcast
4:42 PM 53.6 °F - 53.6 °F 100% 29.76 in 1.5 mi South 4.6 mph - 0.00 in Rain Light Rain
4:54 PM 53.1 °F - 53.1 °F 100% 29.76 in 1.5 mi South 4.6 mph - 0.00 in Rain Light Rain
5:23 PM 53.6 °F - 53.6 °F 100% 29.75 in 1.5 mi South 4.6 mph - 0.03 in Rain Light Rain
5:54 PM 53.1 °F - 53.1 °F 100% 29.73 in 1.5 mi Calm Calm - 0.05 in Rain Light Rain
6:10 PM 53.6 °F - 53.6 °F 100% 29.72 in 3.0 mi South 4.6 mph - 0.00 in   Light Drizzle
6:52 PM 53.6 °F - 53.6 °F 100% 29.72 in 3.0 mi SSE 5.8 mph - 0.00 in   Overcast
6:54 PM 54.0 °F - 53.1 °F 97% 29.72 in 2.5 mi South 5.8 mph - 0.00 in   Overcast
7:04 PM 53.6 °F - 53.6 °F 100% 29.71 in 1.8 mi South 5.8 mph - 0.00 in Rain Light Rain
7:13 PM 53.6 °F - 53.6 °F 100% 29.72 in 2.0 mi South 6.9 mph - 0.00 in Rain Light Rain
7:26 PM 53.6 °F - 53.6 °F 100% 29.71 in 1.2 mi South 3.5 mph - 0.01 in Rain Light Rain
7:54 PM 54.0 °F - 54.0 °F 100% 29.70 in 1.2 mi Calm Calm - 0.04 in Rain Light Rain
8:04 PM 53.6 °F - 53.6 °F 100% 29.70 in 0.5 mi West 3.5 mph - 0.00 in Fog , Rain Light Rain
8:30 PM 53.6 °F - 53.6 °F 100% 29.70 in 3.0 mi WNW 10.4 mph - 0.01 in Rain Light Rain
8:34 PM 53.6 °F - 53.6 °F 100% 29.71 in 2.0 mi West 20.7 mph 33.4 mph 0.01 in Rain Light Rain
8:36 PM 53.6 °F - 53.6 °F 100% 29.70 in 1.5 mi WNW 21.9 mph 33.4 mph 0.01 in Rain Heavy Rain
8:42 PM 51.8 °F - 51.8 °F 100% 29.70 in 2.5 mi NW 18.4 mph 33.4 mph 0.06 in Rain Rain
8:44 PM 51.8 °F - 51.8 °F 100% 29.69 in 3.0 mi NW 13.8 mph 33.4 mph 0.06 in Rain Light Rain
8:46 PM 51.8 °F - 50.0 °F 94% 29.69 in 4.0 mi NW 13.8 mph - 0.06 in Rain Light Rain
8:54 PM 50.0 °F - 50.0 °F 100% 29.70 in 10.0 mi NW 12.7 mph - 0.06 in Rain Light Rain
9:54 PM 50.0 °F - 48.9 °F 96% 29.72 in 8.0 mi West 8.1 mph - 0.05 in Rain Light Rain
10:05 PM 50.0 °F - 48.2 °F 94% 29.72 in 10.0 mi West 10.4 mph - 0.00 in   Overcast
10:21 PM 50.0 °F - 48.2 °F 94% 29.71 in 10.0 mi WNW 11.5 mph - 0.00 in   Overcast
10:39 PM 48.2 °F - 48.2 °F 100% 29.71 in 10.0 mi WNW 10.4 mph - 0.00 in   Overcast
10:54 PM 48.9 °F - 46.9 °F 93% 29.72 in 10.0 mi WNW 11.5 mph - 0.00 in   Overcast
11:34 PM 48.2 °F - 46.4 °F 93% 29.73 in 10.0 mi WNW 12.7 mph - N/A   Overcast
11:50 PM 46.4 °F 40.1 °F 44.6 °F 93% 29.73 in 9.0 mi WNW 15.0 mph - N/A   Overcast
11:54 PM 46.9 °F - 45.0 °F 93% 29.75 in 8.0 mi NW 12.7 mph - N/A   Overcast